Simultaneous Nadir Overpasses (SNOs) Predictions

Prediction of SNOs between METOP-A and NOAA-19 Satellite Orbit:

Table of predicted SNOs for the next 14.0 days since TLE Epoch: 9/20/2019
Index Date (METOP-A) Time (METOP-A) Lat,Lon (METOP-A) SZA (METOP-A ) Date (NOAA-19) Time (NOAA-19) Lat,Lon (NOAA-19) SZA (NOAA-19 ) Distance(km) Time Diff (sec)
1 09/22/2019 22:42:01 -80.11, 33.62 99.70 09/22/2019 22:40:54 -80.12, 30.19 99.85 65.49 67
2 09/22/2019 23:32:46 79.97,-160.45 80.11 09/22/2019 23:31:50 79.97,-160.45 80.10 0.14 56
3 09/23/2019 00:23:28 -79.95, 6.70 99.90 09/23/2019 00:22:48 -79.97, 6.81 99.89 2.89 40
4 09/23/2019 01:14:08 79.96, 174.10 80.13 09/23/2019 01:13:51 79.97, 173.97 80.13 3.19 17
5 09/23/2019 02:04:49 -79.97, -18.46 99.85 09/23/2019 02:04:48 -79.95, -18.46 99.87 2.29 1
6 09/23/2019 02:55:30 79.95, 148.65 80.14 09/23/2019 02:55:51 79.96, 148.70 80.15 1.37 21
7 09/23/2019 03:46:11 -79.96, -43.91 99.84 09/23/2019 03:46:49 -79.96, -44.03 99.84 2.45 38
8 09/23/2019 04:36:51 79.97, 123.50 80.19 09/23/2019 04:37:51 79.94, 123.43 80.17 3.42 60
9 09/23/2019 05:27:34 -79.92, -69.64 99.87 09/23/2019 05:28:48 -79.91, -68.99 99.83 12.69 74
10 10/03/2019 23:04:55 80.00,-153.36 84.45 10/03/2019 23:03:41 80.00,-153.38 84.44 0.41 74
11 10/03/2019 23:55:37 -79.99, 13.82 95.56 10/03/2019 23:54:42 -80.00, 13.89 95.56 1.87 55
12 10/04/2019 00:46:17 79.99,-178.81 84.47 10/04/2019 00:45:41 79.98,-178.65 84.46 3.23 36
13 10/04/2019 01:36:58 -80.00, -11.34 95.50 10/04/2019 01:36:42 -79.98, -11.38 95.53 3.00 16
14 10/04/2019 02:27:39 79.98, 155.74 84.48 10/04/2019 02:27:42 79.99, 155.76 84.49 1.17 3
15 10/04/2019 03:18:20 -79.99, -36.79 95.49 10/04/2019 03:18:43 -79.98, -36.95 95.50 3.38 23
16 10/04/2019 04:09:00 80.00, 130.58 84.53 10/04/2019 04:09:42 79.97, 130.49 84.51 3.53 42
17 10/04/2019 04:59:42 -79.98, -62.23 95.48 10/04/2019 05:00:43 -79.97, -62.22 95.48 1.78 61




NCC Satellite Simultaneous Nadir Overpasses (SNOs) Prediction Service
